Location: Apollinopolis Magna
(24.9792°N, 32.8772°E)
Time: 05:19:17
(UTC+00:00)

IRS-P2 Rocket - Pass Details

Date: 02 March 2021
Orbit: 794 x 876 km, 99.1° (Epoch: 12 April)

Event Time Altitude Azimuth Distance (km) Brightness Sun altitude
Rises 16:40:31 0° 160° (SSE) 3,282 7.6 -12.0°
Reaches altitude 10° 16:42:51 10° 158° (SSE) 2,353 6.8 -12.5°
Maximum altitude 16:47:59 69° 75° (ENE) 851 4.5 -13.6°
Drops below altitude 10° 16:53:11 10° 353° (N) 2,375 7.1 -14.8°
Sets 16:55:32 0° 351° (N) 3,316 7.9 -15.4°
